DW5321 Paradera AW current weather conditions

sailwx.info

Wind from 105 at 9 knots gusting 18

Air temperature 31.1° C
Dewpoint 26.1° C

Last reported at 2016-Aug-28 15:41 UTC.
Time now 2016-Aug-28 16:39 UTC

Location: N 12°33' W 070°00'.
View on Google Maps.

See reports from other nearby stations

  
Tides and Currents Weather Stations Pressure Air Temp Water Temp Dewpoint Dewpoint Depression Visibility Wind Speed Wind Dir Waves Ship Positions
date/time (UTC)wind fromknots sea level pressurealtimeterstation pressurevisibilityair tempwater tempwave heightnotes
2016-Aug-28 15:41 105 9 gusting 18 31.1
2016-Aug-28 15:26 105 9 gusting 17 31.1
2016-Aug-28 15:11 124 9 gusting 15 31.1
2016-Aug-28 14:56 108 9 gusting 14 31.1
2016-Aug-28 14:41 113 8 gusting 16 31.1
2016-Aug-28 14:26 117 8 gusting 13 31.1
2016-Aug-28 14:11 053 8 gusting 14 30.6
2016-Aug-28 13:56 085 7 gusting 17 30.6
2016-Aug-28 13:41 082 8 gusting 16 30.0
2016-Aug-28 13:26 105 7 gusting 13 30.0
2016-Aug-28 13:11 075 7 gusting 16 29.4
2016-Aug-28 12:56 121 9 gusting 19 29.4
2016-Aug-28 12:41 118 12 gusting 15 29.4
2016-Aug-28 12:27 101 7 gusting 12 29.4
2016-Aug-28 12:11 121 9 gusting 16 28.9
2016-Aug-28 11:56 110 7 gusting 15 28.3
2016-Aug-28 11:41 108 6 gusting 11 28.3
2016-Aug-28 11:26 084 6 gusting 13 28.3
2016-Aug-28 11:11 104 6 gusting 13 27.8
2016-Aug-28 10:56 108 7 gusting 11 27.8
2016-Aug-28 10:41 115 6 gusting 12 27.8
2016-Aug-28 10:26 130 6 gusting 13 27.8
2016-Aug-28 10:11 094 6 gusting 10 27.2
2016-Aug-28 09:57 110 5 gusting 8 27.8
2016-Aug-28 09:42 105 4 gusting 9 27.8
2016-Aug-28 09:28 089 5 gusting 11 27.8
2016-Aug-28 09:12 079 6 gusting 11 27.8
2016-Aug-28 08:54 095 6 gusting 12 27.8
2016-Aug-28 08:40 054 5 gusting 8 27.8
2016-Aug-28 08:25 124 5 gusting 8 27.8
2016-Aug-28 08:10 089 5 gusting 8 27.8
2016-Aug-28 07:54 091 6 gusting 10 27.8
2016-Aug-28 07:39 109 6 gusting 9 27.8
2016-Aug-28 07:24 106 6 gusting 13 27.8
2016-Aug-28 07:09 103 6 gusting 9 27.8
2016-Aug-28 06:53 105 6 gusting 9 27.8
2016-Aug-28 06:38 110 7 gusting 10 27.8
2016-Aug-28 06:23 108 3 gusting 9 27.8
2016-Aug-28 06:08 113 6 gusting 11 27.8
2016-Aug-28 05:52 084 5 gusting 13 27.8
2016-Aug-28 05:38 110 5 gusting 11 27.8
2016-Aug-28 05:22 094 6 gusting 10 27.8
2016-Aug-28 05:07 095 7 gusting 11 27.8
2016-Aug-28 04:52 090 5 gusting 9 27.8
2016-Aug-28 04:37 124 6 gusting 12 27.8
2016-Aug-28 04:21 070 4 gusting 8 27.8
2016-Aug-28 04:07 079 6 gusting 9 27.8
2016-Aug-28 03:52 086 4 gusting 8 27.8
2016-Aug-28 03:35 090 5 gusting 8 28.3
2016-Aug-28 03:20 099 5 gusting 13 28.3
2016-Aug-28 03:07 067 5 gusting 11 28.3
2016-Aug-28 02:50 071 4 gusting 8 28.3
2016-Aug-28 02:35 108 9 gusting 12 28.3
2016-Aug-28 02:19 084 4 gusting 13 28.3
2016-Aug-28 02:07 110 6 gusting 12 28.3
2016-Aug-28 01:49 090 6 gusting 9 28.3
2016-Aug-28 01:34 108 6 gusting 14 28.3
2016-Aug-28 01:18 079 5 gusting 8 28.3
2016-Aug-28 01:06 138 6 gusting 11 28.3
2016-Aug-28 00:48 100 5 gusting 11 28.3
2016-Aug-28 00:33 085 4 gusting 9 28.3
2016-Aug-28 00:18 092 5 gusting 10 28.3
2016-Aug-28 00:06 084 6 gusting 9 28.3
2016-Aug-27 23:47 057 6 gusting 13 28.3
2016-Aug-27 23:32 080 6 gusting 12 28.9
2016-Aug-27 23:17 074 6 gusting 12 28.9
2016-Aug-27 23:06 077 5 gusting 11 28.9
2016-Aug-27 22:47 072 5 gusting 13 29.4
2016-Aug-27 22:32 072 5 gusting 13 29.4
2016-Aug-27 22:17 082 5 gusting 9 30.0
2016-Aug-27 22:06 073 6 gusting 13 29.4
2016-Aug-27 21:45 050 3 gusting 9 30.0
2016-Aug-27 21:30 022 5 gusting 9 30.6
2016-Aug-27 21:17 054 5 gusting 8 30.6
2016-Aug-27 20:59 030 4 gusting 9 30.6
2016-Aug-27 20:44 088 5 gusting 8 30.6
2016-Aug-27 20:28 356 4 gusting 8 31.1
2016-Aug-27 20:14 075 5 gusting 8 31.1
2016-Aug-27 19:58 046 4 gusting 7 31.1
2016-Aug-27 19:43 055 5 gusting 9 31.7
2016-Aug-27 19:27 071 6 gusting 9 32.2
2016-Aug-27 19:12 092 6 gusting 10 32.2
2016-Aug-27 18:57 070 5 gusting 8 33.3
2016-Aug-27 18:41 109 4 gusting 9 33.3
2016-Aug-27 18:26 094 4 gusting 13 32.8
2016-Aug-27 18:11 117 3 gusting 13 32.8
2016-Aug-27 17:56 114 2 gusting 11 33.3
2016-Aug-27 17:40 108 3 gusting 11 33.9
2016-Aug-27 17:26 180 4 gusting 8 33.3
2016-Aug-27 17:11 173 6 gusting 13 33.3
2016-Aug-27 16:55 137 4 gusting 9 33.3
2016-Aug-27 16:39 107 4 gusting 10 32.8
2016-Aug-27 16:24 142 3 gusting 12 32.8
2016-Aug-27 16:09 170 8 gusting 15 32.2
2016-Aug-27 15:53 164 6 gusting 19 31.7
2016-Aug-27 15:38 166 8 gusting 13 32.2
2016-Aug-27 15:22 155 4 gusting 16 32.2
2016-Aug-27 15:07 164 8 gusting 17 30.6
2016-Aug-27 14:52 175 6 gusting 13 30.6
2016-Aug-27 14:37 160 7 gusting 14 30.6
2016-Aug-27 14:22 108 1 gusting 13 30.6
2016-Aug-27 14:07 181 5 gusting 13 30.0
2016-Aug-27 13:52 146 6 gusting 16 29.4
2016-Aug-27 13:37 159 3 gusting 13 29.4
2016-Aug-27 13:22 160 6 gusting 13 30.0
2016-Aug-27 13:07 104 1 gusting 14 30.0
2016-Aug-27 12:52 129 4 gusting 13 29.4
2016-Aug-27 12:36 146 5 gusting 14 28.9
2016-Aug-27 12:21 124 11 gusting 19 28.9
2016-Aug-27 12:06 110 6 gusting 14 28.9
2016-Aug-27 11:51 090 3 gusting 7 28.3
2016-Aug-27 11:36 099 3 gusting 10 27.8
2016-Aug-27 11:21 114 6 gusting 12 27.8
2016-Aug-27 11:06 088 5 gusting 10 27.8
2016-Aug-27 10:51 124 2 gusting 6 27.8
2016-Aug-27 10:36 136 1 gusting 10 27.8
2016-Aug-27 10:21 140 1 gusting 6 27.8
2016-Aug-27 10:06 117 4 gusting 9 27.8
2016-Aug-27 09:51 141 3 gusting 9 27.8
2016-Aug-27 09:36 186 6 gusting 13 27.8
2016-Aug-27 09:21 119 6 gusting 13 27.8
2016-Aug-27 09:06 103 6 gusting 12 27.8
2016-Aug-27 08:51 099 8 gusting 11 27.8
2016-Aug-27 08:36 141 6 gusting 10 27.8
2016-Aug-27 08:21 104 5 gusting 11 27.8
2016-Aug-27 08:06 113 5 gusting 11 27.8
2016-Aug-27 07:52 117 5 gusting 9 27.8
2016-Aug-27 07:36 121 6 gusting 8 27.8
2016-Aug-27 07:21 117 5 gusting 7 27.8
2016-Aug-27 07:06 099 4 gusting 9 28.3
2016-Aug-27 06:51 124 5 gusting 14 27.8
2016-Aug-27 06:36 089 6 gusting 8 27.8
2016-Aug-27 06:21 089 4 gusting 6 27.8
2016-Aug-27 06:06 110 4 gusting 8 27.8
2016-Aug-27 05:51 117 1 gusting 6 28.3
2016-Aug-27 05:36 113 4 gusting 8 28.3
2016-Aug-27 05:21 093 4 gusting 9 28.3
2016-Aug-27 05:06 086 5 gusting 8 28.3
2016-Aug-27 04:51 075 5 gusting 9 28.3
2016-Aug-27 04:36 078 4 gusting 10 28.3
2016-Aug-27 04:21 104 4 gusting 8 28.3
2016-Aug-27 04:06 084 5 gusting 9 28.3
2016-Aug-27 03:51 101 6 gusting 9 28.3
2016-Aug-27 03:35 111 6 gusting 12 28.3
2016-Aug-27 03:20 072 4 gusting 9 28.3
2016-Aug-27 03:05 097 4 gusting 9 28.3
2016-Aug-27 02:50 107 6 gusting 10 28.3
2016-Aug-27 02:35 113 5 gusting 10 28.9
2016-Aug-27 02:21 108 3 gusting 8 28.9
2016-Aug-27 02:05 110 2 gusting 7 28.9
2016-Aug-27 01:51 111 4 gusting 9 28.9
2016-Aug-27 01:35 077 5 gusting 9 28.9
2016-Aug-27 01:21 089 5 gusting 7 28.9
2016-Aug-27 01:06 072 4 gusting 8 28.9
2016-Aug-27 00:51 084 3 gusting 7 28.9
2016-Aug-27 00:35 090 3 gusting 7 28.9
2016-Aug-27 00:20 073 3 gusting 8 28.9
2016-Aug-27 00:06 072 4 gusting 6 28.9
2016-Aug-26 23:50 072 4 gusting 6 28.9
2016-Aug-26 23:35 094 2 gusting 7 28.9
2016-Aug-26 23:20 089 4 gusting 11 29.4
2016-Aug-26 23:05 105 5 gusting 9 29.4
2016-Aug-26 22:50 096 6 gusting 12 29.4
2016-Aug-26 22:35 073 6 gusting 10 30.0
2016-Aug-26 22:20 084 7 gusting 11 30.0
2016-Aug-26 22:05 079 4 gusting 11 30.6
2016-Aug-26 21:50 064 8 gusting 14 30.6
2016-Aug-26 21:35 066 6 gusting 12 31.1
2016-Aug-26 21:20 097 7 gusting 13 31.1
2016-Aug-26 21:05 082 6 gusting 13 31.1
2016-Aug-26 20:50 079 7 gusting 13 31.1
2016-Aug-26 20:35 088 8 gusting 14 31.7
2016-Aug-26 20:20 070 6 gusting 13 32.2
2016-Aug-26 20:05 091 7 gusting 15 31.7
2016-Aug-26 19:50 111 8 gusting 18 31.7
2016-Aug-26 19:35 117 9 gusting 18 32.2
2016-Aug-26 19:20 111 11 gusting 19 32.2
2016-Aug-26 19:05 105 8 gusting 16 32.8
2016-Aug-26 18:50 122 7 gusting 13 32.8
2016-Aug-26 18:35 094 7 gusting 12 32.8
2016-Aug-26 18:20 072 7 gusting 13 32.8
2016-Aug-26 18:05 098 7 gusting 13 32.8
2016-Aug-26 17:50 076 8 gusting 13 32.8
2016-Aug-26 17:35 064 8 gusting 17 33.3
2016-Aug-26 17:20 110 7 gusting 14 33.9
2016-Aug-26 17:05 082 6 gusting 16 33.9
2016-Aug-26 16:51 110 12 gusting 15 33.3
2016-Aug-26 16:35 156 7 gusting 18 33.3
2016-Aug-26 16:20 101 9 gusting 19 32.8
2016-Aug-26 16:05 066 7 gusting 16 32.8